Simultaneous Nadir Overpasses (SNOs) Predictions

Prediction of SNOs between GOES-15 and LANDSAT-8 Satellite Orbit:

Table of predicted SNOs for the next 14.0 days since TLE Epoch: 4/8/2023
Index Date Time (GOES-15) GOES-15 Lat,Lon LANDSAT-8 Lat,Lon Distance(km) Time Diff (sec)
1 04/08/2023 07:00:30 0.16,-130.09 -0.18,-131.76 189.67 80
2 04/10/2023 06:45:39 0.17,-131.09 0.66,-128.84 255.75 80
3 04/10/2023 19:09:34 -0.17,-131.34 0.42,-134.00 303.50 80
4 04/12/2023 18:54:43 -0.18,-132.33 -0.45,-131.09 141.07 80
5 04/13/2023 07:18:47 0.19,-132.59 -0.61,-136.29 420.26 80
6 04/15/2023 07:03:55 0.19,-133.57 0.21,-133.36 23.89 80
7 04/17/2023 06:51:43 0.19,-134.56 1.06,-130.44 468.08 80
8 04/17/2023 19:15:37 -0.19,-134.80 0.00,-135.60 91.68 80
9 04/19/2023 19:00:46 -0.19,-135.78 -0.87,-132.68 352.63 80
10 04/20/2023 07:24:49 0.20,-136.05 -0.17,-137.88 208.35 80
